Télécharger la liste

Sponsored link

Description du projet

Agate is a simple, fast & well structured Content Management System for website developers with zero HTML knowledge. It is designed to minimize DB hits and supports features like user management, page templates, etc to make site management easier.

Système requise

System requirement is not defined

Télécharger la liste des paquets

Latest 5 files
Nom Taille Date Télécharger compter
agatecms-0.01-beta.tar.bz2 1.1 MB 2010-05-29 03:06 18
config.inc.php 1.4 KB 2010-03-11 03:43 11
index.php 2.2 KB 2010-03-11 03:43 15
menu.lib.php 0.7 KB 2010-03-11 03:43 3
register.lib.php 4.8 KB 2010-03-11 03:43 5
All Files
agatecms-0.01-beta.tar.bz21.1 MB2010-05-29 03:0618
trunk
agatecms
config.inc.php1.4 KB2010-03-11 03:4311
index.php2.2 KB2010-03-11 03:4315
lib
menu.lib.php0.7 KB2010-03-11 03:433
register.lib.php4.8 KB2010-03-11 03:435
login.lib.php1.8 KB2010-03-11 03:434
profile.lib.php4.6 KB2010-03-11 03:432
page.lib.php11.9 KB2010-03-11 03:4310
rightbar.lib.php0.3 KB2010-03-11 03:437
auth.lib.php1.5 KB2010-03-11 03:4311
error.lib.php0.4 KB2010-03-11 03:434
dashboard.lib.php1.7 KB2010-03-11 03:4313
breadcrumb.lib.php0.9 KB2010-03-11 03:438
mysql.lib.php21.5 KB2010-03-11 03:4319
templates
default
scripts
formValidator.js8.0 KB2010-03-11 03:4330
ddtree.js6.3 KB2010-03-11 03:4314
pngfix.js1.5 KB2010-03-11 03:4369
tbman.js4.1 KB2010-03-11 03:438
treemenu.js7.2 KB2010-03-11 03:43103
mootools-1.11-allDocumented.js179.8 KB2010-03-11 03:4322
permgrant.js1.6 KB2010-03-11 03:432
ajaxsuggestionbox.js5.5 KB2010-03-11 03:431
ftod.js0.9 KB2010-03-11 03:439
mootools-1.11-allCompressed.js27.8 KB2010-03-11 03:4312
header.js0.5 KB2010-03-11 03:4354
mootools-1.11-accslide.js23.8 KB2010-03-11 03:4314
ajaxbasic.js1.0 KB2010-03-11 03:433
index.php2.1 KB2010-03-11 03:437
icons
32x32
categories
preferences-system.png2.1 KB2010-03-11 03:421
applications-other.png1.5 KB2010-03-11 03:423
applications-development.png2.1 KB2010-03-11 03:425
applications-office.png2.0 KB2010-03-11 03:4215
applications-internet.png2.4 KB2010-03-11 03:428
preferences-desktop.png0.8 KB2010-03-11 03:4213
applications-accessories.png2.2 KB2010-03-11 03:429
applications-system.png2.5 KB2010-03-11 03:422
preferences-desktop-peripherals.png2.1 KB2010-03-11 03:425
applications-graphics.png1.6 KB2010-03-11 03:425
applications-multimedia.png1.8 KB2010-03-11 03:4211
applications-games.png2.1 KB2010-03-11 03:421
animations
process-working.png12.9 KB2010-03-11 03:4213
status
dialog-error.png1.6 KB2010-03-11 03:427
weather-clear.png1.7 KB2010-03-11 03:4210
weather-showers-scattered.png2.1 KB2010-03-11 03:424
folder-drag-accept.png1.1 KB2010-03-11 03:429
weather-severe-alert.png2.0 KB2010-03-11 03:425
mail-attachment.png1.7 KB2010-03-11 03:423
network-wireless-encrypted.png2.1 KB2010-03-11 03:428
network-transmit.png1.4 KB2010-03-11 03:428
weather-showers.png2.1 KB2010-03-11 03:428
network-error.png1.6 KB2010-03-11 03:427
network-idle.png1.2 KB2010-03-11 03:425
software-update-urgent.png1.4 KB2010-03-11 03:428
audio-volume-muted.png1.7 KB2010-03-11 03:425
weather-snow.png2.1 KB2010-03-11 03:425
battery-caution.png1.7 KB2010-03-11 03:4210
image-missing.png1.0 KB2010-03-11 03:4210
audio-volume-high.png2.0 KB2010-03-11 03:428
folder-open.png1.2 KB2010-03-11 03:4211
network-transmit-receive.png1.3 KB2010-03-11 03:427
audio-volume-low.png1.7 KB2010-03-11 03:4214
folder-visiting.png0.8 KB2010-03-11 03:426
audio-volume-medium.png1.8 KB2010-03-11 03:4213
weather-clear-night.png1.3 KB2010-03-11 03:426
weather-overcast.png1.6 KB2010-03-11 03:4210
network-offline.png1.4 KB2010-03-11 03:428
network-receive.png1.4 KB2010-03-11 03:426
weather-few-clouds-night.png1.7 KB2010-03-11 03:423
weather-storm.png2.0 KB2010-03-11 03:4210
dialog-warning.png1.4 KB2010-03-11 03:4213
weather-few-clouds.png2.0 KB2010-03-11 03:429
user-trash-full.png2.3 KB2010-03-11 03:426
dialog-information.png1.9 KB2010-03-11 03:426
software-update-available.png1.6 KB2010-03-11 03:4211
image-loading.png1.2 KB2010-03-11 03:42115
printer-error.png1.3 KB2010-03-11 03:428
actions
media-seek-forward.png1.2 KB2010-03-11 03:4213
go-home.png1.7 KB2010-03-11 03:424
mail-mark-junk.png2.2 KB2010-03-11 03:424
document-open.png1.4 KB2010-03-11 03:422
format-text-bold.png1.6 KB2010-03-11 03:425
edit-redo.png1.5 KB2010-03-11 03:426
mail-forward.png1.5 KB2010-03-11 03:4210
process-stop.png1.9 KB2010-03-11 03:424
address-book-new.png1.9 KB2010-03-11 03:429
format-justify-center.png0.5 KB2010-03-11 03:424
go-down.png1.2 KB2010-03-11 03:423
list-remove.png0.3 KB2010-03-11 03:421
media-playback-start.png1.0 KB2010-03-11 03:4216
go-previous.png1.2 KB2010-03-11 03:422
mail-reply-sender.png1.5 KB2010-03-11 03:427
mail-reply-all.png1.9 KB2010-03-11 03:425
media-eject.png1.0 KB2010-03-11 03:427
edit-undo.png1.6 KB2010-03-11 03:429
format-justify-right.png0.5 KB2010-03-11 03:425
media-skip-backward.png1.2 KB2010-03-11 03:427
format-justify-left.png0.5 KB2010-03-11 03:422
window-new.png0.7 KB2010-03-11 03:421
format-text-italic.png1.3 KB2010-03-11 03:425
format-text-underline.png1.5 KB2010-03-11 03:4214
format-indent-less.png0.7 KB2010-03-11 03:425
format-indent-more.png0.7 KB2010-03-11 03:4212
media-skip-forward.png1.2 KB2010-03-11 03:4214
format-text-strikethrough.png1.4 KB2010-03-11 03:424
media-seek-backward.png1.0 KB2010-03-11 03:425
document-properties.png1.1 KB2010-03-11 03:425
go-bottom.png1.2 KB2010-03-11 03:429
media-playback-pause.png0.5 KB2010-03-11 03:4211
edit-cut.png2.0 KB2010-03-11 03:425
format-justify-fill.png0.5 KB2010-03-11 03:425
folder-new.png1.4 KB2010-03-11 03:420
system-log-out.png1.7 KB2010-03-11 03:4210
document-save.png1.9 KB2010-03-11 03:4212
document-print.png1.0 KB2010-03-11 03:427
edit-clear.png1.6 KB2010-03-11 03:428
document-save-as.png1.8 KB2010-03-11 03:429
go-next.png1.2 KB2010-03-11 03:425
mail-mark-not-junk.png2.1 KB2010-03-11 03:425
contact-new.png1.4 KB2010-03-11 03:423
edit-select-all.png0.6 KB2010-03-11 03:425
go-up.png1.2 KB2010-03-11 03:427
document-new.png1.0 KB2010-03-11 03:414
tab-new.png0.8 KB2010-03-11 03:415
media-record.png1.2 KB2010-03-11 03:417
view-refresh.png2.0 KB2010-03-11 03:4111
edit-paste.png1.0 KB2010-03-11 03:4115
document-print-preview.png1.7 KB2010-03-11 03:4115
system-lock-screen.png1.7 KB2010-03-11 03:418
edit-copy.png0.7 KB2010-03-11 03:416
go-first.png1.3 KB2010-03-11 03:4111
mail-message-new.png1.6 KB2010-03-11 03:413
mail-send-receive.png2.0 KB2010-03-11 03:411
go-jump.png1.5 KB2010-03-11 03:413
bookmark-new.png1.5 KB2010-03-11 03:416
list-add.png0.6 KB2010-03-11 03:416
edit-find.png1.6 KB2010-03-11 03:414
system-search.png2.2 KB2010-03-11 03:4110
media-playback-stop.png0.6 KB2010-03-11 03:4112
system-shutdown.png1.0 KB2010-03-11 03:4114
edit-delete.png2.0 KB2010-03-11 03:418
go-last.png1.3 KB2010-03-11 03:417
view-fullscreen.png1.2 KB2010-03-11 03:415
edit-find-replace.png2.1 KB2010-03-11 03:415
go-top.png1.3 KB2010-03-11 03:415
appointment-new.png2.3 KB2010-03-11 03:417
apps
preferences-desktop-font.png1.3 KB2010-03-11 03:4114
internet-news-reader.png1.1 KB2010-03-11 03:417
system-users.png1.9 KB2010-03-11 03:413
preferences-system-windows.png0.6 KB2010-03-11 03:418
system-software-update.png2.2 KB2010-03-11 03:415
internet-web-browser.png2.2 KB2010-03-11 03:415
help-browser.png2.2 KB2010-03-11 03:4112
preferences-desktop-accessibility.png1.6 KB2010-03-11 03:418
office-calendar.png1.3 KB2010-03-11 03:4110
utilities-terminal.png1.5 KB2010-03-11 03:419
internet-group-chat.png0.8 KB2010-03-11 03:413
preferences-desktop-multimedia.png2.3 KB2010-03-11 03:418
system-installer.png1.6 KB2010-03-11 03:413
internet-mail.png1.4 KB2010-03-11 03:414
preferences-system-network-proxy.png2.2 KB2010-03-11 03:4121
accessories-text-editor.png1.5 KB2010-03-11 03:4110
preferences-desktop-locale.png1.3 KB2010-03-11 03:416
preferences-desktop-assistive-technology.png1.8 KB2010-03-11 03:416
system-file-manager.png0.7 KB2010-03-11 03:4112
utilities-system-monitor.png1.8 KB2010-03-11 03:416
accessories-calculator.png1.3 KB2010-03-11 03:419
accessories-character-map.png1.2 KB2010-03-11 03:415
preferences-desktop-keyboard-shortcuts.png1.4 KB2010-03-11 03:416
preferences-desktop-theme.png1.5 KB2010-03-11 03:417
preferences-desktop-screensaver.png1.8 KB2010-03-11 03:4110
preferences-desktop-remote-desktop.png2.1 KB2010-03-11 03:4112
preferences-system-session.png1.5 KB2010-03-11 03:411
preferences-desktop-wallpaper.png1.7 KB2010-03-11 03:4117
emotes
face-devilish.png1.8 KB2010-03-11 03:417
face-wink.png1.9 KB2010-03-11 03:418
face-smile.png1.9 KB2010-03-11 03:415
face-monkey.png2.1 KB2010-03-11 03:415
face-plain.png1.7 KB2010-03-11 03:414
face-crying.png1.9 KB2010-03-11 03:417
face-glasses.png2.2 KB2010-03-11 03:417
face-smile-big.png1.9 KB2010-03-11 03:412
face-angel.png1.9 KB2010-03-11 03:415
face-kiss.png1.9 KB2010-03-11 03:412
face-grin.png1.7 KB2010-03-11 03:417
face-surprise.png1.8 KB2010-03-11 03:412
face-sad.png1.8 KB2010-03-11 03:416
mimetypes
application-x-executable.png1.6 KB2010-03-11 03:4117
x-office-presentation-template.png1.8 KB2010-03-11 03:419
audio-x-generic.png1.1 KB2010-03-11 03:4112
text-x-script.png1.3 KB2010-03-11 03:416
x-office-drawing.png1.2 KB2010-03-11 03:417
x-office-presentation.png1.3 KB2010-03-11 03:415
x-office-drawing-template.png1.8 KB2010-03-11 03:417
x-office-document-template.png1.5 KB2010-03-11 03:4112
x-office-spreadsheet-template.png1.9 KB2010-03-11 03:416
application-certificate.png1.8 KB2010-03-11 03:411
text-x-generic.png0.7 KB2010-03-11 03:416
x-office-document.png0.9 KB2010-03-11 03:414
x-office-spreadsheet.png1.5 KB2010-03-11 03:415
package-x-generic.png1.0 KB2010-03-11 03:417
font-x-generic.png1.1 KB2010-03-11 03:415
text-x-generic-template.png0.8 KB2010-03-11 03:413
text-html.png1.7 KB2010-03-11 03:414
video-x-generic.png2.0 KB2010-03-11 03:414
image-x-generic.png1.1 KB2010-03-11 03:411
x-office-address-book.png1.7 KB2010-03-11 03:4114
x-office-calendar.png1.5 KB2010-03-11 03:414
places
folder-saved-search.png1.2 KB2010-03-11 03:417
folder.png1.0 KB2010-03-11 03:416
network-server.png0.8 KB2010-03-11 03:414
user-trash.png1.7 KB2010-03-11 03:414
user-desktop.png0.9 KB2010-03-11 03:413
user-home.png1.2 KB2010-03-11 03:416
start-here.png1.4 KB2010-03-11 03:416
folder-remote.png1.4 KB2010-03-11 03:411
network-workgroup.png1.2 KB2010-03-11 03:416
emblems
emblem-unreadable.png1.3 KB2010-03-11 03:415
emblem-photos.png1.6 KB2010-03-11 03:403
emblem-important.png1.5 KB2010-03-11 03:403
emblem-system.png2.2 KB2010-03-11 03:406
emblem-favorite.png1.5 KB2010-03-11 03:403
emblem-readonly.png0.9 KB2010-03-11 03:401
emblem-symbolic-link.png0.9 KB2010-03-11 03:408
devices
computer.png1.7 KB2010-03-11 03:407
drive-optical.png1.3 KB2010-03-11 03:402
input-gaming.png1.4 KB2010-03-11 03:404
input-keyboard.png1.5 KB2010-03-11 03:407
media-floppy.png0.9 KB2010-03-11 03:4011
media-optical.png2.2 KB2010-03-11 03:402
battery.png1.4 KB2010-03-11 03:405
drive-removable-media.png0.9 KB2010-03-11 03:406
audio-input-microphone.png2.1 KB2010-03-11 03:408
multimedia-player.png1.8 KB2010-03-11 03:402
drive-harddisk.png1.1 KB2010-03-11 03:404
network-wireless.png1.5 KB2010-03-11 03:408
camera-video.png1.6 KB2010-03-11 03:407
audio-card.png1.9 KB2010-03-11 03:402
video-display.png1.5 KB2010-03-11 03:407
camera-photo.png1.9 KB2010-03-11 03:4010
printer.png0.9 KB2010-03-11 03:404
media-flash.png1.3 KB2010-03-11 03:405
input-mouse.png1.7 KB2010-03-11 03:403
network-wired.png1.7 KB2010-03-11 03:405
16x16
categories
applications-other.png0.6 KB2010-03-11 03:402
preferences-system.png0.6 KB2010-03-11 03:406
applications-office.png0.8 KB2010-03-11 03:406
applications-development.png0.7 KB2010-03-11 03:403
preferences-desktop.png0.4 KB2010-03-11 03:406
applications-internet.png0.8 KB2010-03-11 03:402
applications-system.png0.6 KB2010-03-11 03:406
applications-accessories.png0.9 KB2010-03-11 03:404
preferences-desktop-peripherals.png0.9 KB2010-03-11 03:404
applications-graphics.png0.6 KB2010-03-11 03:4010
applications-games.png0.3 KB2010-03-11 03:406
applications-multimedia.png0.6 KB2010-03-11 03:404
animations
process-working.png3.0 KB2010-03-11 03:401
status
dialog-error.png0.6 KB2010-03-11 03:404
weather-clear.png0.7 KB2010-03-11 03:404
weather-showers-scattered.png1.0 KB2010-03-11 03:403
folder-drag-accept.png0.5 KB2010-03-11 03:4014
weather-severe-alert.png1.0 KB2010-03-11 03:407
mail-attachment.png0.6 KB2010-03-11 03:4012
network-wireless-encrypted.png0.9 KB2010-03-11 03:407
network-transmit.png0.4 KB2010-03-11 03:409
weather-showers.png0.9 KB2010-03-11 03:408
network-idle.png0.4 KB2010-03-11 03:404
network-error.png0.6 KB2010-03-11 03:409
software-update-urgent.png0.6 KB2010-03-11 03:403
audio-volume-muted.png0.6 KB2010-03-11 03:406
weather-snow.png1.0 KB2010-03-11 03:404
image-missing.png0.4 KB2010-03-11 03:409
audio-volume-high.png0.7 KB2010-03-11 03:403
battery-caution.png0.8 KB2010-03-11 03:404
folder-open.png0.5 KB2010-03-11 03:402
network-transmit-receive.png0.4 KB2010-03-11 03:405
audio-volume-low.png0.5 KB2010-03-11 03:401
folder-visiting.png0.4 KB2010-03-11 03:403
weather-clear-night.png0.9 KB2010-03-11 03:403
audio-volume-medium.png0.6 KB2010-03-11 03:402
network-offline.png0.5 KB2010-03-11 03:403
weather-overcast.png1.0 KB2010-03-11 03:407
network-receive.png0.4 KB2010-03-11 03:400
weather-few-clouds-night.png0.9 KB2010-03-11 03:406
weather-storm.png1.0 KB2010-03-11 03:406
dialog-warning.png0.6 KB2010-03-11 03:402
weather-few-clouds.png0.7 KB2010-03-11 03:405
dialog-information.png0.8 KB2010-03-11 03:405
user-trash-full.png0.8 KB2010-03-11 03:403
image-loading.png0.5 KB2010-03-11 03:408
software-update-available.png0.7 KB2010-03-11 03:405
printer-error.png0.6 KB2010-03-11 03:406
actions
media-seek-forward.png0.8 KB2010-03-11 03:408
go-home.png0.6 KB2010-03-11 03:405
mail-mark-junk.png0.9 KB2010-03-11 03:404
format-text-bold.png0.7 KB2010-03-11 03:407
document-open.png0.5 KB2010-03-11 03:407
edit-redo.png0.6 KB2010-03-11 03:407
mail-forward.png0.7 KB2010-03-11 03:402
process-stop.png0.8 KB2010-03-11 03:401
address-book-new.png0.8 KB2010-03-11 03:405